Weather History for KHFJ - February, 2013

Change the Weather History Date:

Monday, February 18, 2013

  Actual Average (KJLN) Record (KJLN)
Temperature  
Mean Temperature 46 °F 41 °F  
Max Temperature 59 °F 52 °F 78 °F (1986)
Min Temperature 32 °F 30 °F -3 °F (1993)
Degree Days  
Heating Degree Days 20 24  
Month to date heating degree days 479  
Since 1 July heating degree days 3028  
Cooling Degree Days 0 0  
Month to date cooling degree days 0  
Year to date cooling degree days 0  
Moisture  
Dew Point 37 °F    
Average Humidity 67    
Maximum Humidity 94    
Minimum Humidity 41    
Precipitation  
Precipitation 0.16 in 0.09 in 1.84 in (1974)
Month to date precipitation 1.40  
Year to date precipitation 3.43  
Sea Level Pressure  
Sea Level Pressure 29.77 in    
Wind  
Wind Speed 22 mph (SW)    
Max Wind Speed 31 mph    
Max Gust Speed 46 mph    
Visibility 10 miles    
Events Rain , Thunderstorm    
T = Trace of Precipitation, MM = Missing Value Source: NWS Daily Summary

Daily Weather History Graph

Daily Weather History Graph

Search for Another Location

Airport or City:

Trip Planner

Search our weather history database for the weather conditions in past years. The results will help you decide how hot, cold, wet, or windy it might be!

Date:

Astronomy

Feb. 18, 2013 Rise Set
Actual Time 7:00 AM CST 5:59 PM CST
Civil Twilight 6:34 AM CST 6:26 PM CST
Nautical Twilight 6:04 AM CST 6:56 PM CST
Astronomical Twilight 5:33 AM CST 7:26 PM CST
Moon 11:50 AM CST (2/18) 1:37 AM CST (2/18)
Length of Visible Light 11h 51m
Length of Day
10h 59m
First Quarter, 58% of the Moon is Illuminated
Feb 18
First Quarter
Feb 25
Full
Mar 4
Last Quarter
Mar 11
New
Mar 19
First Quarter

Hourly Weather History & Observations

Time (CST) Temp. Windchill Dew Point Humidity Pressure Visibility Wind Dir Wind Speed Gust Speed Precip Events Conditions
12:15 AM 51.8 °F - 30.2 °F 44% 29.79 in 10.0 mi South 18.4 mph 25.3 mph N/A   Clear
12:35 AM 51.8 °F - 30.2 °F 44% 29.79 in 10.0 mi South 25.3 mph 29.9 mph N/A   Clear
12:55 AM 51.8 °F - 30.2 °F 44% 29.78 in 10.0 mi South 20.7 mph 29.9 mph N/A   Clear
1:15 AM 53.6 °F - 30.2 °F 41% 29.77 in 10.0 mi South 21.9 mph 31.1 mph N/A   Clear
1:35 AM 53.6 °F - 32.0 °F 44% 29.77 in 10.0 mi South 19.6 mph 29.9 mph N/A   Clear
1:55 AM 53.6 °F - 32.0 °F 44% 29.77 in 10.0 mi South 23.0 mph 33.4 mph N/A   Clear
2:15 AM 53.6 °F - 32.0 °F 44% 29.76 in 10.0 mi South 27.6 mph 33.4 mph N/A   Clear
2:35 AM 51.8 °F - 32.0 °F 47% 29.75 in 10.0 mi South 23.0 mph 33.4 mph N/A   Clear
2:55 AM 51.8 °F - 32.0 °F 47% 29.74 in 10.0 mi South 24.2 mph 32.2 mph N/A   Clear
3:15 AM 51.8 °F - 33.8 °F 50% 29.73 in 10.0 mi South 27.6 mph 33.4 mph N/A   Clear
3:35 AM 51.8 °F - 33.8 °F 50% 29.73 in 10.0 mi South 24.2 mph 35.7 mph N/A   Clear
3:55 AM 51.8 °F - 35.6 °F 54% 29.72 in 10.0 mi South 25.3 mph 32.2 mph N/A   Clear
4:15 AM 51.8 °F - 37.4 °F 58% 29.72 in 10.0 mi South 23.0 mph 32.2 mph N/A   Clear
4:35 AM 51.8 °F - 37.4 °F 58% 29.72 in 10.0 mi South 21.9 mph 29.9 mph N/A   Clear
4:55 AM 51.8 °F - 39.2 °F 62% 29.71 in 10.0 mi South 25.3 mph 33.4 mph N/A   Clear
5:15 AM 51.8 °F - 41.0 °F 67% 29.71 in 10.0 mi South 25.3 mph 36.8 mph N/A   Clear
5:35 AM 51.8 °F - 41.0 °F 67% 29.70 in 10.0 mi South 23.0 mph 36.8 mph N/A   Scattered Clouds
6:35 AM 51.8 °F - 42.8 °F 71% 29.67 in 10.0 mi South 27.6 mph 36.8 mph N/A   Overcast
6:55 AM 53.6 °F - 42.8 °F 67% 29.67 in 10.0 mi South 27.6 mph 38.0 mph N/A   Overcast
7:15 AM 53.6 °F - 42.8 °F 67% 29.67 in 10.0 mi South 25.3 mph 35.7 mph N/A   Overcast
7:35 AM 53.6 °F - 42.8 °F 67% 29.67 in 10.0 mi South 20.7 mph 32.2 mph N/A   Overcast
7:55 AM 53.6 °F - 42.8 °F 67% 29.68 in 10.0 mi South 26.5 mph 32.2 mph N/A   Overcast
8:35 AM 53.6 °F - 44.6 °F 72% 29.67 in 10.0 mi South 29.9 mph 38.0 mph N/A   Overcast
8:55 AM 53.6 °F - 44.6 °F 72% 29.66 in 10.0 mi South 24.2 mph 36.8 mph N/A   Overcast
9:15 AM 53.6 °F - 44.6 °F 72% 29.66 in 10.0 mi South 27.6 mph 36.8 mph N/A   Overcast
9:55 AM 55.4 °F - 44.6 °F 67% 29.65 in 10.0 mi South 26.5 mph 34.5 mph N/A   Overcast
10:15 AM 55.4 °F - 46.4 °F 72% 29.64 in 10.0 mi South 31.1 mph 39.1 mph N/A   Overcast
10:35 AM 55.4 °F - 46.4 °F 72% 29.63 in 10.0 mi South 29.9 mph 39.1 mph N/A   Overcast
10:55 AM 59.0 °F - 46.4 °F 63% 29.63 in 10.0 mi SSW 29.9 mph 41.4 mph N/A   Overcast
11:15 AM 57.2 °F - 46.4 °F 67% 29.63 in 10.0 mi South 31.1 mph 46.0 mph N/A   Overcast
11:35 AM 55.4 °F - 46.4 °F 72% 29.63 in 10.0 mi South 29.9 mph 36.8 mph N/A   Overcast
11:55 AM 55.4 °F - 46.4 °F 72% 29.63 in 10.0 mi SSW 21.9 mph 34.5 mph N/A Rain Rain
12:15 PM 53.6 °F - 50.0 °F 88% 29.61 in 10.0 mi South 23.0 mph 33.4 mph N/A   Drizzle
12:35 PM 53.6 °F - 50.0 °F 88% 29.59 in 4.0 mi South 19.6 mph 25.3 mph 0.02 in Rain Rain
12:55 PM 51.8 °F - 50.0 °F 94% 29.59 in 5.0 mi SSW 16.1 mph - 0.11 in Rain , Thunderstorm Light Thunderstorms and Rain
1:15 PM 51.8 °F - 50.0 °F 94% 29.59 in 10.0 mi South 17.3 mph 29.9 mph N/A Thunderstorm Overcast
1:35 PM 53.6 °F - 50.0 °F 88% 29.59 in 10.0 mi SSW 19.6 mph 29.9 mph N/A   Overcast
1:55 PM 51.8 °F - 50.0 °F 94% 29.59 in 7.0 mi WSW 23.0 mph 38.0 mph 0.05 in Rain , Thunderstorm Light Thunderstorms and Rain
2:15 PM 51.8 °F - 46.4 °F 82% 29.60 in 10.0 mi WSW 12.7 mph 21.9 mph N/A Thunderstorm Mostly Cloudy
2:35 PM 53.6 °F - 44.6 °F 72% 29.61 in 10.0 mi West 25.3 mph 32.2 mph N/A   Mostly Cloudy
2:55 PM 55.4 °F - 37.4 °F 51% 29.62 in 10.0 mi West 27.6 mph 35.7 mph N/A   Scattered Clouds
3:15 PM 51.8 °F - 37.4 °F 58% 29.65 in 10.0 mi WNW 28.8 mph 41.4 mph N/A Thunderstorm Scattered Clouds
3:35 PM 50.0 °F - 37.4 °F 62% 29.68 in 10.0 mi WNW 27.6 mph 33.4 mph N/A   Scattered Clouds
3:55 PM 48.2 °F - 35.6 °F 62% 29.71 in 10.0 mi WNW 21.9 mph 32.2 mph N/A   Scattered Clouds
4:15 PM 46.4 °F 39.0 °F 35.6 °F 66% 29.73 in 10.0 mi WNW 19.6 mph 33.4 mph N/A   Mostly Cloudy
4:35 PM 46.4 °F 38.5 °F 33.8 °F 62% 29.76 in 10.0 mi NW 21.9 mph 27.6 mph N/A   Overcast
5:15 PM 44.6 °F 37.2 °F 33.8 °F 66% 29.80 in 10.0 mi NW 17.3 mph - N/A   Overcast
5:35 PM 44.6 °F 37.8 °F 33.8 °F 66% 29.82 in 10.0 mi NW 15.0 mph - N/A   Overcast
5:55 PM 44.6 °F 38.1 °F 33.8 °F 66% 29.83 in 10.0 mi NW 13.8 mph - N/A   Overcast
6:15 PM 42.8 °F 34.3 °F 32.0 °F 66% 29.86 in 10.0 mi NW 19.6 mph 29.9 mph N/A   Overcast
6:35 PM 41.0 °F 31.9 °F 32.0 °F 70% 29.88 in 10.0 mi NW 19.6 mph 28.8 mph N/A   Overcast
6:55 PM 39.2 °F 30.2 °F 32.0 °F 75% 29.91 in 10.0 mi NW 17.3 mph 26.5 mph N/A   Scattered Clouds
7:15 PM 39.2 °F 29.6 °F 32.0 °F 75% 29.92 in 10.0 mi NW 19.6 mph 25.3 mph N/A   Mostly Cloudy
7:35 PM 39.2 °F 29.3 °F 32.0 °F 75% 29.93 in 10.0 mi NW 20.7 mph 31.1 mph N/A   Overcast
7:55 PM 37.4 °F 27.8 °F 30.2 °F 75% 29.95 in 10.0 mi NW 17.3 mph 27.6 mph N/A   Mostly Cloudy
8:15 PM 37.4 °F 27.2 °F 30.2 °F 75% 29.97 in 10.0 mi NW 19.6 mph 26.5 mph N/A   Mostly Cloudy
8:35 PM 35.6 °F 25.5 °F 28.4 °F 75% 29.98 in 10.0 mi NW 17.3 mph 26.5 mph N/A   Mostly Cloudy
8:55 PM 35.6 °F 25.2 °F 26.6 °F 70% 30.00 in 10.0 mi NW 18.4 mph 29.9 mph N/A   Mostly Cloudy
9:15 PM 33.8 °F 22.8 °F 26.6 °F 75% 30.02 in 10.0 mi NW 18.4 mph 24.2 mph N/A   Scattered Clouds
9:35 PM 33.8 °F 24.3 °F 26.6 °F 75% 30.03 in 10.0 mi NW 13.8 mph 20.7 mph N/A   Scattered Clouds
9:55 PM 33.8 °F 24.8 °F 26.6 °F 75% 30.04 in 10.0 mi NW 12.7 mph 19.6 mph N/A   Clear
10:15 PM 32.0 °F 24.2 °F 24.8 °F 75% 30.05 in 10.0 mi NW 9.2 mph 16.1 mph N/A   Clear
10:35 PM 32.0 °F 25.6 °F 26.6 °F 80% 30.06 in 10.0 mi NW 6.9 mph - N/A   Clear
10:55 PM 32.0 °F 23.0 °F 24.8 °F 75% 30.08 in 10.0 mi NW 11.5 mph - N/A   Clear
11:15 PM 32.0 °F 22.5 °F 24.8 °F 75% 30.09 in 10.0 mi NW 12.7 mph 18.4 mph N/A   Clear
11:35 PM 32.0 °F 20.8 °F 21.2 °F 64% 30.09 in 10.0 mi NW 17.3 mph 23.0 mph N/A   Clear
11:55 PM 32.0 °F 23.6 °F 21.2 °F 64% 30.10 in 10.0 mi NW 10.4 mph - N/A   Clear